Regional Weather Roundup
Issued by NWS

Home | Current Version | Previous Version | Text Only | Print | Product List | Glossary Off
Versions: 1 2 3 4 5 6 7 8 9 10 11 12 13 14 15 16 17 18 19 20 21 22 23 24 25 26 27 28 29 30 31 32 33 34 35 36 37 38 39 40 41 42 43 44 45 46 47 48 49 50

000
ASUS45 KBOU 301307
RWRCO

WEATHER ROUNDUP FOR COLORADO
NATIONAL WEATHER SERVICE DENVER/BOULDER CO
700 AM MDT SAT JUL 30 2016

NOTE: "FAIR" INDICATES FEW OR NO CLOUDS BELOW 12000 FEET WITH NO
SIGNIFICANT WEATHER AND/OR OBSTRUCTIONS TO VISIBILITY.

COZ001>005-013-030-031-301400-
...NORTHWEST COLORADO...

CITY           SKY/WX    TMP DP  RH WIND       PRES   REMARKS
CRAIG          FAIR      45  39  79 CALM      30.17R
HAYDEN         FAIR      54  36  50 E9        30.18R
MEEKER         FAIR      51  40  65 NE6       30.18R
MOUNT WERNER   NOT AVBL
STEAMBOAT SPGS FAIR      45  37  74 CALM      30.20R
WALDEN         FAIR      41  32  70 CALM      30.29R
$$

COZ006>008-011-301400-
...WEST CENTRAL VALLEYS...

CITY           SKY/WX    TMP DP  RH WIND       PRES   REMARKS
GRAND JUNCTION FAIR      68  39  34 CALM      30.03R
MONTROSE       FAIR      70  38  31 E12       30.12R
EAGLE          CLEAR     54  36  50 CALM      30.23R
RIFLE          FAIR      58  37  45 CALM      30.12R
DELTA          NOT AVBL
NUCLA          NOT AVBL
$$

COZ017>023-064>068-301400-
...SOUTHWEST COLORADO...

CITY           SKY/WX    TMP DP  RH WIND       PRES   REMARKS
DURANGO        FAIR      57  43  59 NE5       30.24R
CORTEZ         FAIR      63  45  51 CALM      30.15R
PAGOSA SPRINGS FAIR      54  40  61 CALM      30.34R
TELLURIDE      FAIR      63  36  36 SE5       30.40S
WOLF CREEK PAS FAIR      46  36  66 SW23      30.64R
$$

COZ009-010-012-014-032>034-037-058>063-301400-
...CENTRAL COLORADO...

CITY           SKY/WX    TMP DP  RH WIND       PRES   REMARKS
ASPEN          FAIR      51  38  60 CALM      30.26R
BUENA VISTA    FAIR      54  46  75 CALM      30.33R
COPPER MTN     FAIR      55  25  30 W14       30.59R
BERTHOUD PASS  FAIR      45  32  61 NW21G32   30.58S
COTTONWOOD PAS FAIR      55  46  71 CALM      30.44S
GUNNISON       FAIR      46  36  66 CALM      30.34R
KREMMLING      FAIR      43  32  65 CALM      30.28R
LEADVILLE      CLOUDY    49  44  83 NE5       30.44S
MONARCH PASS   FAIR      50  32  50 MISG      30.70R
SALIDA         FAIR      55  51  84 CALM      30.37S
SUNLIGHT       FAIR      61  32  33 MISG      30.53R
WILKERSON PASS FAIR      48  41  76 W7        30.56R
$$

COZ069>075-301400-
...SAN LUIS VALLEY/SANGRE DE CRISTO MOUNTAINS...

CITY           SKY/WX    TMP DP  RH WIND       PRES   REMARKS
ALAMOSA        FAIR      55  42  61 CALM      30.30R
LA VETA PASS   FAIR      50  37  62 S10G21    30.45R
SAGUACHE       NOT AVBL
$$

COZ035-036-038>040-301400-
...NORTHERN COLORADO FRONT RANGE...

CITY           SKY/WX    TMP DP  RH WIND       PRES   REMARKS
DENVER INTL AP FAIR      65  57  75 W5        30.05S
DMNS CITY PARK   N/A     65  60  85 N1        30.05S
AURORA         MOSUNNY   65  57  75 SW9       30.06F
FRONT RANGE AP SUNNY     68  57  68 S15G22    30.06
ERIE MUNI ARPT FAIR      59  56  92 CALM      30.05S
BOULDER MUN AP FAIR      63  55  77 CALM      30.05S
CENTENNIAL     FAIR      64  56  75 S13       30.08S
BROOMFIELD     SUNNY     61  57  88 CALM      30.07F
LONGMONT       NOT AVBL
$$

COZ041-046-047-076>085-087-088-301400-
...PIKES PEAK/PALMER DIVIDE AND SOUTHERN FOOTHILLS...

CITY           SKY/WX    TMP DP  RH WIND       PRES   REMARKS
COLO. SPRINGS  CLOUDY    60  57  89 SE5       30.19F FOG
A. F. ACADEMY  PTSUNNY   59  59  99 SE7       30.18F
SCHRIEVER AFB  NOT AVBL
ELLICOTT       NOT AVBL
FALCON         NOT AVBL
FORT CARSON    FAIR      61  59  94 SE3       30.15F
LIMON          FAIR      61  59  93 CALM      30.11S
MONUMENT HILL  FAIR      57  54  88 S14       30.20S
TRINIDAD       NOT AVBL
$$

COZ042>045-048>051-090-091-301400-
...NORTHEAST COLORADO...

CITY           SKY/WX    TMP DP  RH WIND       PRES   REMARKS
GREELEY ARPT   FAIR      64  61  88 SE3       30.05R
AKRON          FAIR      63  58  83 CALM      30.07S
BURLINGTON     FAIR      66  60  81 S9        30.04F
WRAY           FAIR      63  61  94 N3        30.03F
STERLING       NOT AVBL
HOLYOKE        NOT AVBL
FORT MORGAN    NOT AVBL
$$

COZ086-089-092>099-301400-
...SOUTHEAST COLORADO...

CITY           SKY/WX    TMP DP  RH WIND       PRES   REMARKS
PUEBLO         FAIR      64  59  83 W6        30.10S
LA JUNTA       FAIR      68  57  68 VRB3      30.04R
LAMAR          FAIR      66  62  87 S13       30.02F
SPRINGFIELD      N/A     63  58  83 E3        30.11S
$$



USA.gov is the U.S. government's official web portal to all federal, state and local government web resources and services.